This is the latest recevied weather packets stored in our database for station/object F6DEV-13. If no packets are shown the sender has not sent any weather packets the latest 10 day(s).
| Time | Temp. | Humidity | Pressure | Rain* | Wind** | Luminosity | Snow |
|---|---|---|---|---|---|---|---|
| 1777733635 | 22.22° C | 51% | 1013 hPa | 0 mm | - | - | - |
| 1777733334 | 22.22° C | 55% | 1013 hPa | 0 mm | - | - | - |
| 1777733005 | 22.22° C | 53% | 1013 hPa | 0 mm | - | - | - |
| 1777732704 | 22.22° C | 53% | 1014 hPa | 0 mm | - | - | - |
| 1777732404 | 22.22° C | 53% | 1014 hPa | 0 mm | - | - | - |
| 1777732104 | 22.22° C | 53% | 1014 hPa | 0 mm | - | - | - |
| 1777731775 | 22.22° C | 55% | 1014 hPa | 0 mm | - | - | - |
| 1777731444 | 22.22° C | 53% | 1014 hPa | 0 mm | - | - | - |
| 1777731144 | 22.22° C | 52% | 1014 hPa | 0 mm | - | - | - |
| 1777730815 | 22.78° C | 49% | 1014 hPa | 0 mm | - | - | - |
| 1777730485 | 23.33° C | 49% | 1014 hPa | 0 mm | - | - | - |
| 1777730185 | 23.33° C | 48% | 1014 hPa | 0 mm | - | - | - |
| 1777729885 | 23.89° C | 47% | 1014 hPa | 0 mm | - | - | - |
| 1777729555 | 23.89° C | 48% | 1014 hPa | 0 mm | - | - | - |
| 1777729255 | 23.89° C | 47% | 1014 hPa | 0 mm | - | - | - |
| 1777728925 | 24.44° C | 46% | 1014 hPa | 0 mm | - | - | - |
| 1777728625 | 23.89° C | 44% | 1014 hPa | 0 mm | - | - | - |
| 1777728325 | 23.89° C | 40% | 1014 hPa | 0 mm | - | - | - |
| 1777727995 | 23.33° C | 45% | 1014 hPa | 0 mm | - | - | - |
| 1777727695 | 23.33° C | 46% | 1014 hPa | 0 mm | - | - | - |
| 1777727364 | 22.78° C | 47% | 1014 hPa | 0 mm | - | - | - |
| 1777727065 | 22.78° C | 48% | 1014 hPa | 0 mm | - | - | - |
| 1777726765 | 22.78° C | 50% | 1014 hPa | 0 mm | - | - | - |
| 1777726435 | 22.78° C | 48% | 1015 hPa | 0 mm | - | - | - |
| 1777726105 | 23.33° C | 50% | 1015 hPa | 0 mm | - | - | - |
* Rain latest hour (hover to see other rain measurements)
** Current wind speed in m/s (hover to see current wind gust speed)